KUIPER-00179

导读 | 豆包AI

KUIPER-00179是美国亚马逊公司“柯伊伯计划”星座中的一颗近地轨道互联网卫星,于2025年12月15日发射升空。该计划旨在打造全球卫星宽带网络,计划部署超3200颗卫星,与SpaceX星链竞争卫星互联网市场,KUIPER-00179的入轨将进一步推动该星座部署进程,助力实现全球高速互联网覆盖目标。

基本信息
目录编号:
67136
目录名称:
KUIPER-00179
国际标识:
2025-301D
轨道中心:
EARTH
卫星名称:
KUIPER-00179
卫星全名:
KUIPER-00179
卫星状态:
在轨 (已飞行78 天)
发射日期:
2025-12-15 UTC
国别 :
美国 (US)
星等 :
--
轨道信息
数据来源 国际轨道数据
星历时间: 2026-03-03T04:00:02+0800
8小时前
查看轨道信息
半长轴: 6887.616km
偏心率: 0.000265
轨道倾角: 51.881°
近地点辐角 40.708°
升交点赤经 98.756°
平近点角 101.958°
近地点: 507.653km
远地点: 511.305km
周期: 94.812分钟
每日圈数: 15.18796
详细信息
使用方式:
暂无
2D轨道图
3D轨道图
轨道高度分析图
轨道倾角分析图
轨道综合分析图
查看轨道综合分析图